Home   Weather   Cairns   Past weeks

Flag for Australia Past Weather in Cairns, Queensland, Australia — Yesterday and Last 2 Weeks

Now
82 °F

Partly sunny.


Feels Like: 86 °F
Forecast: 70 / 85 °F
Wind: 7 mph from East

Location: Cairns Airport

Current Time: Apr 26, 2017 at 2:19:38 pm

Latest Report: Apr 26, 2017 at 1:30 pm


Visibility: N/A

Pressure: 29.89 "Hg

Humidity: 66%

Dew Point: 70 °F

Location of CairnsLocation

Past Weather in Cairns — Graph

°F

Cairns Temperature Yesterday

Maximum temperature yesterday: 82 °F (at 3:00 pm)
Minimum temperature yesterday: 72 °F (at 11:00 pm)
Average temperature yesterday: 77 °F

High & Low Weather Summary for the Past Weeks

 TemperatureHumidityPressure
High88 °F (Apr 11, 1:00 pm)94% (Apr 11, 10:00 pm)30.07 "Hg (Apr 11, 10:00 pm)
Low68 °F (Apr 26, 5:00 am)51% (Apr 17, 12:00 pm)29.80 "Hg (Apr 11, 1:00 pm)
Average77 °F77%29.96 "Hg
* Reported Apr 11 1:00 pm — Apr 26 1:00 pm, Cairns, Weather by CustomWeather, © 2017

Note: Actual official high and low records may vary slightly from our data, if they occured in-between our weather recording intervals... More about our weather records

Advertising

Cairns Weather History for the Previous 24 Hours

Scroll right to see more
 ConditionsComfort  
Time TempWeatherWind HumidityBarometerVisibility
1:00 pm
Wed, Apr 26
82 °FPartly sunny.6 mph62%29.89 "HgN/A
12:30 pm82 °FPartly sunny.6 mph66%29.92 "HgN/A
12:00 pm82 °FPartly sunny.6 mph66%29.92 "HgN/A
11:30 am82 °FOvercast.6 mph62%29.95 "HgN/A
11:00 am81 °FPartly sunny.7 mph66%29.95 "HgN/A
10:30 am79 °FPartly sunny.7 mph70%29.98 "HgN/A
10:00 am79 °FOvercast.No wind74%29.98 "HgN/A
9:30 am75 °FOvercast.5 mph78%29.98 "HgN/A
9:00 am73 °FOvercast.8 mph83%29.98 "HgN/A
8:30 am72 °FPartly sunny.7 mph83%29.98 "HgN/A
8:00 am72 °FOvercast.7 mph83%29.98 "HgN/A
7:30 am70 °FOvercast.2 mph94%29.95 "HgN/A
7:00 am68 °FOvercast.3 mph94%29.95 "HgN/A
6:30 am68 °FOvercast.3 mph94%29.95 "HgN/A
6:00 am68 °FOvercast.5 mph94%29.92 "HgN/A
5:30 am68 °FPassing clouds.8 mph94%29.92 "HgN/A
5:00 am68 °FPassing clouds.13 mph94%29.92 "HgN/A
4:30 am70 °FPassing clouds.8 mph88%29.92 "HgN/A
4:00 am70 °FPassing clouds.5 mph88%29.92 "HgN/A
3:30 am70 °FPassing clouds.13 mph88%29.92 "HgN/A
3:00 am70 °FPassing clouds.10 mph88%29.92 "HgN/A
2:30 am70 °FPassing clouds.1 mph94%29.92 "HgN/A
2:00 am70 °FPassing clouds.5 mph94%29.95 "HgN/A
1:30 am70 °FPassing clouds.3 mph94%29.95 "HgN/A
1:00 am70 °FPassing clouds.10 mph94%29.95 "HgN/A
12:30 am72 °FPassing clouds.10 mph88%29.95 "HgN/A
12:00 am72 °FPassing clouds.10 mph94%29.95 "HgN/A
11:30 pm
Tue, Apr 25
72 °FPassing clouds.10 mph94%29.98 "HgN/A
11:00 pm72 °FPassing clouds.8 mph88%29.98 "HgN/A
10:30 pm75 °FPassing clouds.8 mph78%29.98 "HgN/A
10:00 pm75 °FPassing clouds.7 mph78%29.98 "HgN/A
9:30 pm75 °FPassing clouds.9 mph78%29.98 "HgN/A
9:00 pm75 °FPassing clouds.9 mph78%29.98 "HgN/A
8:30 pm75 °FPassing clouds.8 mph78%29.98 "HgN/A
8:00 pm75 °FPassing clouds.7 mph83%29.95 "HgN/A
7:30 pm75 °FPassing clouds.9 mph83%29.95 "HgN/A
7:00 pm77 °FPartly cloudy.10 mph79%29.95 "HgN/A
6:30 pm77 °FPartly cloudy.9 mph79%29.95 "HgN/A
6:00 pm77 °FBroken clouds.9 mph79%29.92 "HgN/A
5:30 pm79 °FBroken clouds.12 mph74%29.92 "HgN/A
5:00 pm79 °FBroken clouds.15 mph74%29.92 "HgN/A
4:30 pm81 °FBroken clouds.16 mph70%29.89 "HgN/A
3:30 pm82 °FPartly sunny.12 mph66%29.89 "HgN/A
3:00 pm82 °FBroken clouds.13 mph66%29.89 "HgN/A
2:30 pm81 °FBroken clouds.9 mph74%29.89 "HgN/A
2:00 pm81 °FBroken clouds.9 mph74%29.92 "HgN/A
Weather by CustomWeather, © 2017

See weather overviewHow to use our weather pages